{"data":{"norad_id":51625,"intl_designator":"2022-012D","name":"ONEWEB-0416","alt_names":[],"object_type":"PAYLOAD","status":"ACTIVE","operator":null,"country":"UK","launch_date":"2022-02-10","launch_site_code":"FRGUI","launch_vehicle":null,"mission":null,"orbit_class":"UNKNOWN","rcs_meters":null,"size_class":null,"mass_kg":null,"dimensions":null,"purposes":["comms"],"wikipedia_slug":null,"has_3d_model":false,"image_url":null,"decayed_at":null,"tle_current":{"epoch":"2026-09-20T02:05:10.395168Z","epoch_age_seconds":62831,"freshness":"FRESH","line1":"1 51625U 22012D   26263.08692587  .00000454  00000+0  12645-2 0  9992","line2":"2 51625  87.8916  17.3854 0001445 112.7976 247.3304 13.10370661221753","mean_motion":13.10370661,"eccentricity":0.0001445,"inclination_deg":87.8916,"raan_deg":17.3854,"arg_perigee_deg":112.7976,"mean_anomaly_deg":247.3304,"bstar":0.0012645,"rev_number":22175,"period_min":109.89257031297,"perigee_km":1220.6273068547,"apogee_km":1222.8236671135,"semimajor_km":7599.8624869841,"source":"CELESTRAK","updated_at":"2026-09-20T09:00:44.708147Z"}}}